This is the latest recevied weather packets stored in our database for station/object IZ5ILU-16. If no packets are shown the sender has not sent any weather packets the latest 10 day(s).
| Time | Temp. | Humidity | Pressure | Rain* | Wind** | Luminosity | Snow |
|---|---|---|---|---|---|---|---|
| 1787769341 | 27.22° C | 62% | 1015.8 hPa | 0 mm | - | - | - |
| 1787768741 | 27.78° C | 62% | 1015.8 hPa | 0 mm | - | - | - |
| 1787768141 | 27.78° C | 61% | 1015.5 hPa | 0 mm | - | - | - |
| 1787767541 | 27.78° C | 61% | 1015.6 hPa | 0 mm | - | - | - |
| 1787766941 | 28.33° C | 60% | 1015.4 hPa | 0 mm | - | - | - |
| 1787766342 | 28.33° C | 59% | 1015.2 hPa | 0 mm | - | - | - |
| 1787765741 | 28.33° C | 57% | 1015.1 hPa | 0 mm | - | - | - |
| 1787765142 | 28.89° C | 56% | 1015.2 hPa | 0 mm | - | - | - |
| 1787764542 | 28.89° C | 55% | 1015.2 hPa | 0 mm | - | - | - |
| 1787763941 | 28.89° C | 56% | 1015.1 hPa | 0 mm | - | - | - |
| 1787763341 | 29.44° C | 57% | 1014.9 hPa | 0 mm | - | - | - |
| 1787762741 | 29.44° C | 55% | 1015.1 hPa | 0 mm | - | - | - |
| 1787762141 | 29.44° C | 54% | 1015.1 hPa | 0 mm | - | - | - |
| 1787761542 | 29.44° C | 54% | 1015 hPa | 0 mm | - | - | - |
| 1787760942 | 30° C | 50% | 1015.5 hPa | 0 mm | - | - | - |
| 1787760342 | 30.56° C | 49% | 1015.5 hPa | 0 mm | - | - | - |
| 1787759741 | 30.56° C | 49% | 1015.9 hPa | 0 mm | - | - | - |
| 1787759142 | 30.56° C | 50% | 1016 hPa | 0 mm | - | - | - |
| 1787758542 | 31.11° C | 49% | 1016 hPa | 0 mm | - | - | - |
| 1787757942 | 31.67° C | 51% | 1015.8 hPa | 0 mm | - | - | - |
| 1787757342 | 31.67° C | 50% | 1015.9 hPa | 0 mm | - | - | - |
| 1787756742 | 31.67° C | 50% | 1015.6 hPa | 0 mm | - | - | - |
| 1787756142 | 31.67° C | 51% | 1015.5 hPa | 0 mm | - | - | - |
| 1787755542 | 31.67° C | 52% | 1015.7 hPa | 0 mm | - | - | - |
| 1787754942 | 31.67° C | 52% | 1015.8 hPa | 0 mm | - | - | - |
* Rain latest hour (hover to see other rain measurements)
** Current wind speed in m/s (hover to see current wind gust speed)